Tracking 18980 objects as of 18-Feb-2018
HD Live streaming from Space Station
objects crossing your sky now

NOAA 16 DEB

Track NOAA 16 DEB now!
10-day predictions


NORAD ID: 41282
Int'l Code: 2000-055GJ
Perigee: 855.4 km
Apogee: 962.8 km
Inclination: 98.9 °
Period: 103.0 minutes
Semi major axis: 7280 km
RCS: Unknown
Launch date: September 21, 2000
Source: United States (US)
Launch site: AIR FORCE WESTERN TEST RANGE (AFWTR)

Note: This is SATELLITE DEBRIS
aabbcc
Your satellite tracking list
Your tracking list is empty




NASA's NSSDC Master Catalog

Two Line Element Set (TLE):
1 41282U 00055GJ  18048.98561685  .00000795  00000-0  57999-3 0  9999
2 41282  98.8755 103.4790 0073723 186.8918 173.1238 13.97644831109964
Source of the keplerian elements: AFSPC